sat.trackr.live / text

‹ back to catalog

STARLINK-33662

NORAD 63285 · 2025-053W

PAYLOAD ACTIVE UNKNOWN

§ Identity

Operator
Country
US
Launch date
2025-03-15
Launch site
AFETR
Launch vehicle
Mass (kg)
RCS (m²)

Purposes: comms

External: N2YO · Heavens-Above · Gunter

§ Orbital elements

Epoch: 2026-05-25T01:16:53.937120Z

Period
94.27 min
Inclination
42.9982°
Eccentricity
0.0000910
Mean motion
15.27602841 rev/d
Perigee alt
482.4 km
Apogee alt
483.6 km
Semi-major
6,861.1 km
B*
4.8397e-4
RAAN
170.3999°
Arg perigee
303.2734°
Mean anomaly
56.8030°
Rev number
6,787

§ Raw data

STARLINK-336621 63285U 25053W   26145.05340205  .00013089  00000+0  48397-3 0  99902 63285  42.9982 170.3999 0000910 303.2734  56.8030 15.27602841 67876

JSON: /api/v1/satellites/63285 · /tle

For live sub-satellite position, see the globe view (requires WebGL).

§ Visibility from observer

Set your observer location to see the next 7 days of passes ≥ 10°. The values pass through the URL so the page stays shareable.

No JS? Fill the form by hand. The geolocation button needs JavaScript.